Location: Brunembert
(50.7122°N, 1.8935°E)
Time: 03:58:55
(UTC+00:00)

Cosmos 1437 Rocket - Pass Details

Date: 22 April 2021
Orbit: 503 x 564 km, 81.2° (Epoch: 06 May)

Event Time Altitude Azimuth Distance (km) Brightness Sun altitude
Exits shadow 23:05:13 42° 324° (NW) 733 3.8 -26.0°
Drops below altitude 10° 23:08:13 10° 3° (N) 1,744 6.3 -26.1°
Sets 23:10:26 0° 9° (N) 2,644 7.4 -26.1°
